TimeCET,TemperatureF,Dew PointF,Humidity,Sea Level PressureIn,VisibilityMPH,Wind Direction,Wind SpeedMPH,Gust SpeedMPH,PrecipitationIn,Events,Conditions,WindDirDegrees,DateUTC
12:20 AM,53.6,41.0,62,29.77,6.2,NW,16.1,41.4,N/A,Rain,Light Rain Showers,320,2012-12-08 23:20:00
12:50 AM,53.6,39.2,58,29.77,6.2,NW,36.8,-,N/A,,Mostly Cloudy,320,2012-12-08 23:50:00
1:20 AM,53.6,33.8,47,29.77,6.2,NW,34.5,-,N/A,,Mostly Cloudy,320,2012-12-09 00:20:00
1:50 AM,53.6,35.6,51,29.80,6.2,NW,31.1,-,N/A,,Mostly Cloudy,310,2012-12-09 00:50:00
2:20 AM,53.6,39.2,58,29.80,6.2,WNW,32.2,47.2,N/A,,Mostly Cloudy,300,2012-12-09 01:20:00
2:50 AM,53.6,39.2,58,29.77,6.2,WNW,28.8,-,N/A,,Mostly Cloudy,300,2012-12-09 01:50:00
3:20 AM,51.8,39.2,62,29.80,6.2,WNW,35.7,-,N/A,,Mostly Cloudy,300,2012-12-09 02:20:00
3:50 AM,53.6,35.6,51,29.77,6.2,NW,34.5,48.3,N/A,,Mostly Cloudy,310,2012-12-09 02:50:00
4:20 AM,51.8,39.2,62,29.77,6.2,NW,33.4,-,N/A,,Mostly Cloudy,310,2012-12-09 03:20:00
4:50 AM,53.6,39.2,58,29.77,6.2,NW,36.8,49.5,N/A,,Mostly Cloudy,310,2012-12-09 03:50:00
5:20 AM,51.8,37.4,58,29.77,6.2,NW,36.8,49.5,N/A,,Mostly Cloudy,310,2012-12-09 04:20:00
5:50 AM,51.8,41.0,67,29.80,6.2,WNW,31.1,54.1,N/A,,Mostly Cloudy,300,2012-12-09 04:50:00
6:20 AM,51.8,37.4,58,29.80,6.2,NW,35.7,-,N/A,,Mostly Cloudy,320,2012-12-09 05:20:00
6:50 AM,51.8,41.0,67,29.83,6.2,NW,33.4,-,N/A,,Mostly Cloudy,310,2012-12-09 05:50:00
7:20 AM,51.8,42.8,71,29.83,5.0,NNW,33.4,51.8,N/A,Rain,Light Rain,330,2012-12-09 06:20:00
7:50 AM,50.0,42.8,76,29.83,5.6,North,26.5,-,N/A,Rain,Rain Showers,360,2012-12-09 06:50:00
8:20 AM,51.8,41.0,67,29.83,6.2,NNW,32.2,-,N/A,,Mostly Cloudy,330,2012-12-09 07:20:00
8:50 AM,53.6,41.0,62,29.86,6.2,NNW,31.1,-,N/A,,Mostly Cloudy,330,2012-12-09 07:50:00
9:20 AM,51.8,39.2,62,29.86,6.2,NNW,31.1,-,N/A,Rain,Light Rain Showers,330,2012-12-09 08:20:00
9:50 AM,51.8,41.0,67,29.86,5.0,NNW,29.9,41.4,N/A,Rain,Light Rain,330,2012-12-09 08:50:00
10:20 AM,51.8,41.0,67,29.89,4.3,NW,29.9,-,N/A,Rain,Rain Showers,320,2012-12-09 09:20:00
10:50 AM,51.8,41.0,67,29.89,6.2,North,26.5,39.1,N/A,Rain,Light Rain,360,2012-12-09 09:50:00
11:20 AM,50.0,39.2,66,29.89,6.2,NNW,24.2,35.7,N/A,Rain-Thunderstorm,Light Rain,340,2012-12-09 10:20:00
11:50 AM,51.8,41.0,67,29.89,5.6,NNW,27.6,39.1,N/A,Rain,Light Rain,340,2012-12-09 10:50:00
12:20 PM,50.0,42.8,76,29.89,6.2,NNW,28.8,41.4,N/A,Rain,Light Rain,330,2012-12-09 11:20:00
12:50 PM,50.0,41.0,71,29.89,5.0,NNW,25.3,38.0,N/A,Rain,Light Rain Showers,330,2012-12-09 11:50:00
1:20 PM,50.0,42.8,76,29.89,6.2,NNE,13.8,-,N/A,,Scattered Clouds,30,2012-12-09 12:20:00
1:50 PM,48.2,41.0,76,30.01,6.2,North,17.3,-,N/A,Rain,Light Rain Showers,360,2012-12-09 12:50:00
2:20 PM,50.0,42.8,76,29.92,3.7,NW,25.3,36.8,N/A,Rain,Rain Showers,320,2012-12-09 13:20:00
2:50 PM,51.8,41.0,67,29.92,6.2,NNW,24.2,-,N/A,,Mostly Cloudy,330,2012-12-09 13:50:00
3:20 PM,50.0,42.8,76,29.95,6.2,North,29.9,43.7,N/A,,Mostly Cloudy,350,2012-12-09 14:20:00
3:50 PM,48.2,39.2,71,29.95,6.2,North,9.2,-,N/A,,Mostly Cloudy,360,2012-12-09 14:50:00
4:20 PM,51.8,42.8,71,29.98,5.6,North,19.6,-,N/A,Rain,Rain,10,2012-12-09 15:20:00
4:50 PM,51.8,42.8,71,29.98,6.2,NNE,16.1,-,N/A,,Mostly Cloudy,20,2012-12-09 15:50:00
5:20 PM,51.8,41.0,67,29.98,6.2,North,13.8,28.8,N/A,,Mostly Cloudy,350,2012-12-09 16:20:00
5:50 PM,53.6,39.2,58,29.98,6.2,NNW,27.6,-,N/A,,Mostly Cloudy,330,2012-12-09 16:50:00
6:20 PM,53.6,37.4,54,30.01,6.2,NNW,26.5,-,N/A,,Mostly Cloudy,340,2012-12-09 17:20:00
6:50 PM,53.6,39.2,58,30.01,6.2,NNW,25.3,-,N/A,,Scattered Clouds,340,2012-12-09 17:50:00
7:20 PM,53.6,37.4,54,30.01,6.2,NNW,25.3,-,N/A,,Scattered Clouds,340,2012-12-09 18:20:00
7:50 PM,53.6,37.4,54,30.04,6.2,North,25.3,-,N/A,,Scattered Clouds,350,2012-12-09 18:50:00
8:20 PM,53.6,37.4,54,30.04,6.2,North,23.0,-,N/A,,Scattered Clouds,350,2012-12-09 19:20:00
8:50 PM,53.6,35.6,51,30.04,6.2,North,23.0,-,N/A,,Scattered Clouds,350,2012-12-09 19:50:00
9:20 PM,53.6,35.6,51,30.04,6.2,NNW,24.2,-,N/A,,Scattered Clouds,340,2012-12-09 20:20:00
9:50 PM,53.6,33.8,47,30.06,6.2,NNW,25.3,-,N/A,,Scattered Clouds,340,2012-12-09 20:50:00
10:20 PM,53.6,35.6,51,30.06,6.2,North,23.0,-,N/A,,Scattered Clouds,350,2012-12-09 21:20:00
10:50 PM,53.6,35.6,51,30.06,6.2,NNW,23.0,-,N/A,,Scattered Clouds,340,2012-12-09 21:50:00
11:20 PM,53.6,35.6,51,30.06,6.2,NNW,25.3,-,N/A,,Scattered Clouds,340,2012-12-09 22:20:00
11:50 PM,53.6,35.6,51,30.09,6.2,NNW,24.2,-,N/A,,Scattered Clouds,340,2012-12-09 22:50:00